Location: Lac de la Montange Noire
(46.1952°N, 74.2701°W)
Time: 14:11:12
(UTC-04:00)

Iridium 42 - Visible Passes

Search period start: 01 September 2015 00:00
Search period end: 11 September 2015 00:00
Orbit: 775 x 778 km, 86.4° (Epoch: 31 August)

Date Brightness Start Highest point End Pass type
(mag) Time Alt. Az. Time Alt. Az. Time Alt. Az.
01 Sep 7.1 20:42:12 14° E 20:43:40 16° ENE 20:46:55 10° NE visible
01 Sep 5.7 22:22:38 51° SW 22:23:51 69° W 22:29:05 10° N visible
02 Sep 5.4 21:48:47 48° SSE 21:50:08 68° E 21:55:21 10° N visible
02 Sep 7.9 23:29:13 13° W 23:31:31 17° WNW 23:34:44 10° NNW visible
03 Sep 6.0 21:14:54 30° SE 21:16:32 38° E 21:21:23 10° NNE visible
03 Sep 7.2 22:55:19 22° WSW 22:57:25 28° WNW 23:01:51 10° NNW visible
04 Sep 6.7 20:40:59 17° ESE 20:43:03 22° E 20:47:05 10° NNE visible
04 Sep 6.3 22:21:24 32° SW 22:23:28 49° W 22:28:32 10° N visible
05 Sep 7.3 20:07:33 10° E 20:09:38 13° ENE 20:12:01 10° NE visible
05 Sep 5.5 21:47:28 36° S 21:49:40 87° W 21:54:56 10° N visible
05 Sep 8.2 23:29:13 10° W 23:31:22 12° WNW 23:33:14 10° NW visible
06 Sep 5.6 21:13:29 28° SSE 21:16:01 54° E 21:21:06 10° NNE visible
06 Sep 7.7 22:53:54 13° WSW 22:57:09 21° WNW 23:01:00 10° NNW visible
07 Sep 6.3 20:39:26 17° SE 20:42:28 31° E 20:47:01 10° NNE visible
07 Sep 6.9 22:19:51 18° SW 22:23:08 35° WNW 22:27:54 10° NNW visible
08 Sep 7.0 20:05:41 10° ESE 20:09:00 18° ENE 20:12:30 10° NE visible
08 Sep 5.9 21:45:46 21° SSW 21:49:15 63° W 21:54:27 10° N visible
09 Sep 5.4 21:11:35 18° S 21:15:30 75° E 21:20:45 10° N visible
09 Sep 8.2 22:53:51 10° WSW 22:56:58 15° WNW 22:59:54 10° NW visible
10 Sep 5.9 20:37:19 11° SSE 20:41:53 42° E 20:46:49 10° NNE visible
10 Sep 7.5 22:18:28 10° SW 22:22:50 26° WNW 22:27:09 10° NNW visible
